Location: Unspecified
(42.3650°N, 71.1030°W)
Time: 00:57:06
(UTC+00:00)

Vanguard 3 - Pass Details

Date: 01 July 2024
Orbit: 508 x 3230 km, 33.4° (Epoch: 20 July)

Event Time Altitude Azimuth Distance (km) Brightness Sun altitude
Exits shadow 08:25:29 - 205° (SSW) 6,942 11.3 -7.6°
Reaches altitude 10° 08:30:15 10° 197° (SSW) 6,144 11.1 -7.0°
Maximum altitude 08:44:43 28° 148° (SSE) 4,369 10.8 -4.9°
Drops below altitude 10° 08:56:09 10° 98° (E) 4,848 11.9 -3.2°
Sets 09:00:05 0° 87° (E) 5,472 12.5 -2.6°
